Theta_e
290 289 289 288 287 285 284 283 283 282 280 280 280 280 280 279 279 279 279 278 278 278 278 277 276 276 275 274 275 274 274 274 271 273 273 273 273 274 275 275 276 276 276
288 288 288 287 285 284 284 283 282 281 280 280 280 279 279 279 279 279 278 278 278 277 277 276 275 276 274 274 274 273 273 273 272 270 272 272 272 273 274 274 276 277 276
287 286 286 285 284 284 282 282 281 280 279 280 280 280 279 279 279 279 279 278 277 277 276 275 275 275 274 273 273 272 272 274 272 271 270 272 273 273 274 274 274 275 276
286 286 285 284 284 283 282 281 281 280 279 279 280 280 279 279 278 278 277 277 277 277 276 276 275 275 274 273 273 272 273 272 272 270 270 271 272 273 273 272 272 274 274
285 285 285 284 284 283 282 281 280 280 280 280 279 279 278 278 278 277 277 277 277 276 276 276 275 275 278 276 274 273 272 271 271 270 270 270 271 271 271 272 271 272 273
285 284 284 284 283 282 281 280 279 279 279 279 278 278 277 278 282 283 279 277 277 276 275 275 276 275 276 280 281 280 276 271 264 266 269 270 272 272 272 271 271 271 268
284 284 283 283 282 281 281 280 279 279 279 278 278 278 277 277 284 284 282 277 277 276 276 276 275 276 275 274 278 281 281 282 281 274 269 272 273 273 273 272 272 271 269
283 282 282 282 282 280 280 279 279 279 278 278 278 278 278 277 284 285 283 277 276 276 276 276 275 275 275 274 273 273 274 274 275 275 275 275 274 275 275 275 273 268 270
282 281 281 282 281 280 279 279 279 279 278 278 278 277 278 277 284 285 284 279 277 276 276 275 275 275 277 280 276 273 273 274 277 280 281 281 282 282 282 274 261 259 265
281 282 282 282 281 280 280 279 279 279 279 278 278 278 278 278 284 285 284 279 277 277 276 276 278 275 278 280 277 274 272 273 274 273 274 276 278 274 277 274 270 262 264
282 281 282 282 281 281 281 280 279 279 278 277 277 277 278 278 279 285 285 279 279 277 276 275 276 280 281 281 282 277 275 277 276 275 273 272 271 270 270 271 270 269 266
281 281 281 282 281 281 281 280 279 279 278 277 277 276 276 277 279 282 284 285 282 277 276 275 275 279 280 281 281 281 282 282 279 273 268 268 268 268 269 269 270 270 270
281 281 282 282 282 282 280 279 279 279 279 277 277 278 275 274 275 281 281 283 284 281 277 277 279 280 281 281 282 281 280 278 274 269 268 268 269 270 269 268 269 268 268
282 282 282 282 281 282 282 281 280 279 279 279 277 278 276 273 273 273 273 274 276 276 273 270 273 277 278 277 271 273 273 274 274 272 271 271 269 266 265 265 263 262 261
283 281 282 282 282 281 277 280 280 278 281 279 279 278 273 271 271 273 272 267 266 269 265 262 263 265 266 265 264 265 265 265 267 268 269 268 266 266 265 265 264 258 257
277 278 278 277 276 275 274 273 278 278 279 279 279 274 269 274 277 278 277 277 278 278 268 262 259 260 262 262 262 263 264 266 267 267 267 266 265 265 263 263 263 257 256
270 269 271 273 273 272 272 273 272 277 279 278 278 277 275 277 279 279 279 276 274 267 255 252 254 256 256 258 257 258 260 262 264 264 264 264 264 263 262 261 261 260 259
265 266 266 267 267 268 268 268 271 272 270 265 275 276 277 276 275 275 274 267 256 255 248 249 249 249 251 252 253 254 257 258 258 259 261 261 261 261 259 259 259 258 258
264 262 262 261 262 263 263 262 262 263 261 258 259 261 261 273 273 270 265 254 249 248 246 246 245 246 248 248 250 252 253 252 253 252 253 255 258 257 256 257 258 259 259
259 261 261 261 260 260 260 260 258 258 257 256 253 252 250 256 252 249 246 245 245 245 244 245 245 244 244 245 247 247 246 247 248 248 250 251 252 255 257 256 257 258 258
259 258 259 258 258 258 257 258 257 256 255 255 254 255 260 255 251 248 247 243 244 243 244 243 243 242 242 243 243 244 245 248 247 249 250 250 250 251 255 257 257 258 258
256 256 256 256 256 256 254 255 256 255 255 256 252 249 267 248 247 249 246 244 242 243 243 242 242 243 245 244 244 244 245 246 245 247 251 251 251 253 255 256 256 257 257
255 254 254 252 253 254 252 251 253 254 253 253 252 250 247 246 246 243 242 242 240 240 240 240 242 244 244 244 244 246 247 248 248 249 252 250 251 253 254 254 255 255 255
254 254 253 251 251 251 250 249 250 251 250 248 247 247 248 246 243 243 242 242 240 241 240 241 243 244 244 245 243 243 245 248 246 251 252 253 251 252 254 254 254 254 254
251 252 253 252 253 252 253 251 251 248 248 249 248 249 250 248 245 244 244 242 242 241 244 244 244 245 246 247 246 244 246 253 249 250 247 248 248 249 252 249 250 244 246
253 254 253 253 252 250 250 252 251 253 253 253 254 253 252 250 249 249 246 244 245 246 246 245 245 246 247 247 248 250 251 256 253 252 249 248 248 249 245 244 240 242 244
Wind_Speed
11 9 10 10 10 11 11 11 11 11 10 11 10 10 9 8 7 8 7 7 8 6 4 6 6 6 5 4 4 2 2 2 2 3 2 2 3 2 4 5 6 7 6
9 9 11 11 12 12 11 11 11 12 10 11 10 10 8 8 7 8 9 7 8 8 7 7 7 4 6 5 3 4 3 3 3 4 2 2 5 4 4 6 6 6 7
11 12 11 12 12 13 12 12 12 11 10 9 11 11 11 10 9 7 6 7 6 7 7 7 7 6 5 4 3 4 3 4 3 3 3 2 3 2 3 5 5 6 6
11 12 12 13 13 13 12 12 13 12 12 11 10 10 10 10 8 8 7 7 6 5 5 6 7 7 7 6 5 5 4 4 3 3 3 3 3 3 3 5 9 6 8
12 12 13 12 12 12 13 13 12 12 12 12 10 8 9 9 8 9 8 7 7 6 5 5 5 6 9 8 4 5 5 4 4 3 3 3 3 2 3 3 6 10 9
14 14 12 13 13 13 13 14 12 11 9 10 9 10 10 7 16 17 11 7 6 7 6 5 5 6 7 10 13 13 10 5 4 3 3 6 8 4 3 3 5 7 7
13 11 13 13 13 13 12 14 14 14 12 11 10 11 10 7 17 17 14 6 6 6 6 6 5 4 5 5 10 15 15 17 17 6 6 7 8 4 3 5 7 6 9
12 12 12 14 14 13 14 14 13 12 13 12 11 10 9 7 17 15 13 5 5 6 6 6 5 5 6 6 5 7 9 8 10 8 8 8 7 7 6 6 3 6 9
13 12 12 14 14 14 15 14 12 11 10 10 8 9 9 6 16 14 12 7 5 6 5 6 6 6 10 13 7 8 10 10 11 18 20 21 21 19 11 2 3 2 9
10 10 11 12 13 14 13 12 9 10 9 7 8 7 8 8 15 14 14 4 6 5 5 6 13 8 13 14 9 7 10 10 6 8 9 13 12 3 7 4 4 4 5
8 8 9 7 8 8 9 7 9 9 9 8 8 6 7 7 8 15 16 5 7 6 6 5 5 14 16 17 17 8 10 10 12 12 8 5 2 3 3 5 8 7 6
10 11 11 10 9 9 11 9 10 9 9 8 8 5 3 5 11 13 17 20 12 7 6 3 4 12 14 16 14 17 21 19 8 3 1 3 4 5 6 7 8 7 7
12 11 11 12 11 11 12 12 10 10 8 7 7 7 4 4 4 14 15 19 18 9 4 7 10 12 13 12 14 16 15 6 4 2 5 6 6 6 6 4 5 6 7
10 10 10 10 9 8 6 7 7 8 7 7 7 6 5 5 5 4 3 2 5 4 3 2 7 11 13 11 4 5 4 6 7 7 7 6 2 2 4 4 3 3 3
7 7 8 7 8 8 4 5 6 3 7 8 7 7 6 5 6 9 8 4 3 6 2 2 2 2 2 2 3 3 2 2 5 5 6 6 5 5 5 4 3 1 3
7 5 5 6 6 6 7 5 8 7 7 6 9 8 1 6 11 13 13 13 9 7 3 3 1 1 1 2 3 5 4 6 5 5 6 6 6 6 4 2 3 2 3
7 6 4 6 6 7 6 7 9 8 13 12 13 13 12 11 13 12 10 12 9 6 4 1 2 1 0 1 2 2 5 5 5 6 7 6 5 4 4 3 4 3 3
6 6 4 4 5 6 6 6 7 9 8 3 9 9 12 12 11 9 11 8 4 6 3 2 2 1 1 1 2 3 3 2 2 4 6 6 4 4 3 3 4 3 4
6 4 4 4 4 5 5 5 5 6 6 4 2 6 4 10 10 12 9 3 3 2 2 2 3 2 3 2 3 3 2 2 2 2 3 3 4 2 3 4 5 7 7
5 8 6 6 6 6 5 6 5 5 6 5 4 3 0 4 2 1 2 2 2 2 2 3 3 3 4 3 3 2 2 3 3 3 3 3 3 3 4 4 4 5 5
4 4 6 5 5 4 5 5 5 5 5 4 3 4 9 3 4 3 3 3 4 3 4 4 3 4 3 3 2 2 2 3 3 4 3 3 2 2 4 5 5 4 5
4 4 3 4 4 4 4 4 4 5 5 5 2 2 9 3 2 3 3 3 4 4 4 4 4 4 4 4 3 3 3 3 3 3 4 3 2 3 4 4 4 4 4
5 5 5 4 4 5 4 3 4 4 4 4 4 3 2 3 3 3 4 4 3 3 3 3 3 4 4 4 4 4 4 4 5 3 4 3 3 3 4 4 4 4 4
5 5 5 4 3 4 4 3 3 3 3 3 3 3 2 3 3 4 4 3 3 4 3 3 4 6 5 5 4 4 4 5 3 4 6 5 4 4 5 4 4 5 5
4 4 4 4 4 4 4 4 4 4 3 3 3 3 3 3 3 4 4 3 4 3 4 4 4 6 8 8 6 7 6 9 5 5 4 4 5 5 6 3 3 3 3
4 4 3 3 3 3 3 3 3 3 4 3 4 4 4 4 4 4 4 4 4 4 5 4 5 8 9 7 8 9 8 10 8 9 6 5 5 5 3 5 5 4 5
Wind_Direction
170 166 167 166 160 159 163 161 161 156 153 153 147 145 142 133 123 114 121 130 132 136 136 129 112 119 110 101 99 88 138 141 165 289 250 285 296 293 296 279 286 288 286
169 164 168 166 161 166 171 167 158 160 154 154 143 141 136 139 138 141 146 152 153 154 148 128 129 124 123 134 139 165 195 199 172 241 276 269 245 249 275 289 290 290 296
163 164 168 169 171 173 168 166 165 158 152 152 149 152 153 154 151 148 150 159 161 158 151 143 149 144 149 155 156 177 203 225 206 203 263 264 274 288 303 282 288 294 307
167 172 174 177 175 173 170 169 167 164 158 159 161 155 154 151 151 150 153 157 159 148 156 158 162 170 165 173 177 195 208 224 217 213 229 254 248 268 280 309 318 325 318
172 179 183 174 177 168 168 168 166 167 165 161 152 151 149 156 160 156 161 167 152 160 168 175 179 179 185 185 168 196 209 224 217 220 240 251 258 262 270 280 303 314 311
182 183 173 172 169 173 166 164 159 157 153 150 160 162 162 169 177 176 161 154 169 171 182 196 195 185 200 216 229 227 212 211 219 196 221 252 266 251 220 276 306 304 314
187 179 171 169 167 171 164 158 162 164 156 168 166 169 175 166 179 180 174 155 179 185 186 188 203 199 192 206 247 253 256 256 238 212 227 237 262 208 251 295 281 273 279
180 177 169 168 165 164 165 167 165 163 164 170 171 171 166 175 182 173 175 172 196 196 195 191 201 196 203 202 217 242 249 249 254 263 261 264 247 252 238 261 257 279 288
181 178 171 170 165 167 168 168 161 156 166 172 167 161 163 159 176 179 189 180 210 217 199 196 202 212 228 238 231 234 252 252 253 261 260 257 260 260 258 337 319 345 301
173 171 168 167 163 172 165 161 156 153 153 155 153 164 164 167 181 195 210 163 199 219 212 210 218 217 239 246 250 247 261 266 255 252 251 263 275 293 268 268 276 248 265
135 133 142 145 146 155 139 135 142 143 138 153 154 161 176 172 186 212 221 190 212 216 221 220 216 240 252 258 259 244 247 268 260 258 244 236 194 229 234 247 244 237 247
132 134 131 132 132 137 141 138 146 150 152 159 162 160 177 181 199 219 223 231 212 214 226 212 209 244 263 271 274 272 275 280 274 270 225 227 225 228 226 229 231 238 249
134 141 142 142 147 152 155 159 161 167 170 164 175 190 189 190 201 225 230 238 240 234 192 217 239 251 270 281 279 283 289 283 263 237 245 246 228 227 211 214 237 255 265
140 141 146 145 150 153 159 162 163 169 171 175 180 194 189 180 195 183 181 237 261 269 328 303 274 276 278 291 342 320 312 296 293 281 273 268 225 209 211 199 221 197 245
134 133 143 147 149 142 106 155 164 150 185 182 187 187 172 195 204 194 183 178 199 223 156 55 37 30 12 342 331 305 278 274 275 269 271 267 250 246 239 206 236 183 205
117 126 136 130 126 123 118 95 87 130 129 157 168 156 131 168 167 176 180 196 210 225 77 79 61 61 25 347 333 330 331 319 302 284 287 274 272 270 257 231 247 197 230
126 128 127 128 132 134 130 132 125 116 120 117 121 130 143 151 156 157 145 114 92 78 92 123 140 129 219 316 314 301 305 307 325 322 312 305 282 265 265 257 266 261 266
97 95 115 125 126 130 138 136 141 146 134 78 85 112 128 133 134 130 121 98 50 33 87 134 172 188 236 254 270 262 274 300 322 317 311 306 290 288 281 271 272 268 267
112 111 120 112 102 114 116 105 103 112 127 123 72 54 24 137 122 102 65 98 129 130 143 166 192 201 222 236 254 263 282 290 289 293 288 285 286 261 274 272 275 275 274
90 117 114 123 122 118 123 129 124 129 138 148 139 167 183 71 94 65 52 107 112 147 175 202 229 228 230 233 262 278 306 308 292 286 276 265 262 257 277 268 266 270 263
108 98 106 93 108 120 130 136 133 134 143 147 138 169 169 143 156 156 161 174 170 185 200 206 224 232 239 244 248 263 253 264 264 271 267 261 254 262 254 262 271 270 272
88 101 93 112 116 111 113 119 128 129 137 144 147 270 143 92 130 163 183 200 207 207 205 200 225 221 223 219 223 229 240 252 264 266 270 267 249 248 259 266 265 274 277
90 94 81 69 81 104 96 97 121 127 138 141 147 137 115 153 174 196 216 231 221 231 223 198 227 258 242 231 215 207 213 236 231 222 266 256 249 249 249 253 263 269 267
97 104 109 100 94 96 101 98 83 105 129 145 152 166 177 178 197 218 224 236 240 246 231 216 220 236 255 255 238 226 225 242 220 232 237 253 248 258 260 251 257 261 270
80 86 94 112 122 134 138 149 150 155 165 169 181 192 212 213 215 227 229 225 235 234 248 235 228 241 251 258 259 254 244 259 241 219 213 210 226 235 245 228 242 248 242
97 109 115 131 134 141 152 172 182 184 192 206 218 221 219 214 226 229 231 225 228 236 238 232 241 254 262 259 257 257 245 253 244 229 211 208 218 229 207 223 228 229 239